Orbital Elements at Epoch 2459200.5 (2020-Dec-17.0) TDB
Reference: JPL 18 (heliocentric ecliptic J2000)
Element | Value | Uncertainty (1-sigma) | Units |
e | .07334977286204314 | 4.4019e-08 | |
a | 2.604025800108452 | 1.3312e-08 | au |
q | 2.413021099143597 | 1.1138e-07 | au |
i | 2.700515848295784 | 4.5374e-06 | deg |
node | 43.16786496832558 | 8.5234e-05 | deg |
peri | 340.9690480826669 | 8.9485e-05 | deg |
M | 110.5507117346802 | 2.6932e-05 | deg |
tp | 2458729.169663644783 (2019-Sep-02.66966364) | 0.00011453 | TDB |
period | 1534.851457990652 4.20 | 1.177e-05 3.222e-08 | d yr |
n | .2345503847462173 | 1.7986e-09 | deg/d |
Q | 2.795030501073307 | 1.4289e-08 | au |
|
| | Orbit Determination Parameters
Additional Information
|